Regional Weather Roundup
Issued by NWS

Home | Current Version | Previous Version | Text Only | Print | Product List | Glossary Off
Versions: 1 2 3 4 5 6 7 8 9 10 11 12 13 14 15 16 17 18 19 20 21 22 23 24 25 26 27 28 29 30 31 32 33 34 35 36 37 38 39 40 41 42 43 44 45 46 47 48 49 50

000
ASUS43 KOAX 281310
RWRNE

WEATHER ROUNDUP FOR NEBRASKA
NATIONAL WEATHER SERVICE OMAHA NE
700 AM CST WED JAN 28 2015

NOTES: SATELLITE DATA IS BEING USED TO AUGMENT CLOUD COVER ABOVE
       12000 FEET.
       "FAIR" INDICATES FEW OR NO CLOUDS BELOW 12,000 FEET WITH NO
       SIGNIFICANT WEATHER AND/OR OBSTRUCTIONS TO VISIBILITY.

  * THESE STATIONS DO NOT REPORT WEATHER SUCH AS RAIN...SNOW OR FOG.

NEZ001>004-019>022-054>056-281400-
NEBRASKA PANHANDLE

CITY           SKY/WX    TMP DP  RH WIND       PRES   REMARKS
SCOTTSBLUFF      N/A    N/A N/A N/A MISG      29.95R
ALLIANCE       MOCLDY    43  32  65 W18       29.88R
CHADRON        MOCLDY    45  31  58 W14       29.88R
KIMBALL        CLOUDY    47  32  56 NW21G32   29.97R
SIDNEY         MOCLDY    42  31  64 NW14      29.95R
$$

NEZ057>060-069>072-079>082-281400-
SOUTHWEST NEBRASKA

CITY           SKY/WX    TMP DP  RH WIND       PRES   REMARKS
NORTH PLATTE   MOCLDY    29  26  89 NW9       29.85S WCI  20
IMPERIAL       MOCLDY    41  29  62 NW9       29.90R
LEXINGTON      PTCLDY    34  29  84 W13       29.83R WCI  25
MCCOOK         PTCLDY    33  27  78 W10       29.86R WCI  25
OGALLALA       MOCLDY    47  33  57 NW15G22   29.88S
$$

NEZ005>010-023>029-035>040-094-281400-
NORTH CENTRAL NEBRASKA

CITY           SKY/WX    TMP DP  RH WIND       PRES   REMARKS
VALENTINE      MOCLDY    34  28  79 W6        29.78R WCI  29
AINSWORTH      MOCLDY    46  31  55 W14       29.76F
BROKEN BOW     PTCLDY    53  33  46 NW18      29.80S
O`NEILL        MOCLDY    34  32  92 S6        29.76F WCI  29
ORD            PTCLDY    25  23  92 S3        29.79F
THEDFORD       MOCLDY    47  34  62 W9        29.83R
$$

NEZ041-046>049-061>064-073>077-083>087-281400-
SOUTH CENTRAL NEBRASKA

CITY           SKY/WX    TMP DP  RH WIND       PRES   REMARKS
GRAND ISLAND   MOCLDY    25  24  96 CALM      29.80F
AURORA         MOCLDY    28  26  95 SE7       29.80F WCI  20
HASTINGS       MOCLDY    27  24  89 SE5       29.79F WCI  22
HEBRON         PTCLDY    32  29  88 CALM      29.82S
HOLDREGE       CLEAR     33  28  81 NW9       29.80S WCI  25
KEARNEY *      PTCLDY    28  25  86 NW7       29.80F WCI  21
YORK           PTCLDY    28  27  93 SE7       29.83S WCI  21
$$

NEZ011>018-030>034-042>045-281400-
NORTHEAST NEBRASKA

CITY           SKY/WX    TMP DP  RH WIND       PRES   REMARKS
NORFOLK        PTCLDY    30  27  88 SE7       29.81F WCI  23
ALBION         CLEAR     30  27  88 SE6       29.81S WCI  24
BLAIR          PTCLDY    34  30  85 SE10      29.86F WCI  26
COLUMBUS *     PTCLDY    28  21  74 E6        29.84F WCI  22
FREMONT        CLEAR     34  30  85 SE8       29.86S WCI  27
TEKAMAH        PTCLDY    32  29  88 SE8       29.88F WCI  25
WAYNE          CLEAR     32  29  89 S8        29.84S WCI  25
$$

NEZ050>053-065>068-078-088>093-281400-
SOUTHEAST NEBRASKA

CITY           SKY/WX    TMP DP  RH WIND       PRES   REMARKS
LINCOLN        PTCLDY    33  28  81 E6        29.87S WCI  28
OMAHA EPPLEY   PTCLDY    34  29  82 SE14      29.89F WCI  25
BEATRICE       CLEAR     32  28  86 E3        29.84F
FALLS CITY     CLEAR     34  28  79 SE9       29.89F WCI  27
NEBRASKA CITY  PTCLDY    34  28  78 SE8       29.88S WCI  27
PLATTSMOUTH    PTCLDY    32  28  85 SE8       29.88S WCI  25
$$

NEZ044-045-051>053-067-281400-
OMAHA AREA

CITY           SKY/WX    TMP DP  RH WIND       PRES   REMARKS
OMAHA EPPLEY   PTCLDY    34  29  82 SE14      29.89F WCI  25
BLAIR          PTCLDY    34  30  85 SE10      29.86F WCI  26
FREMONT        CLEAR     34  30  85 SE8       29.86S WCI  27
MILLARD        CLEAR     35  30  83 SE7       29.88F WCI  29
OFFUTT AFB     CLEAR     33  29  84 E12       29.88F WCI  25
PLATTSMOUTH    PTCLDY    32  28  85 SE8       29.88S WCI  25
WAHOO          FAIR      29  26  89 SE7       29.85F WCI  22
$$



USA.gov is the U.S. government's official web portal to all federal, state and local government web resources and services.